📊 Raw Sensor Data
Showing records 46551 to 46575 of 85,072 total
| ID | Distance (ft) | Battery V | Battery A | Int Temp (°F) | Int Humid (%) | Ext Temp (°F) | Solar V | RSSI | SNR | Time Stamp |
|---|---|---|---|---|---|---|---|---|---|---|
| 38534 | -- | 3.96 | 0 | 79 | 39 | 76 | 5.10 | -87 | 8 | 04/22/2025 11:46 AM |
| 38533 | -- | 3.96 | 0 | 77 | 40 | 74 | 5.10 | -89 | 8 | 04/22/2025 11:31 AM |
| 38532 | -- | 3.96 | 6 | 76 | 40 | 72 | 5.10 | -87 | 9 | 04/22/2025 11:15 AM |
| 38531 | -- | 4.06 | 6 | 74 | 40 | 74 | 5.10 | -88 | 8 | 04/22/2025 11:00 AM |
| 38530 | -- | 3.96 | 6 | 74 | 39 | 72 | 5.10 | -89 | 8 | 04/22/2025 10:45 AM |
| 38529 | -- | 3.96 | 0 | 72 | 40 | 71 | 5.10 | -88 | 8 | 04/22/2025 10:31 AM |
| 38528 | -- | 3.96 | 6 | 71 | 40 | 73 | 5.10 | -91 | 8 | 04/22/2025 10:15 AM |
| 38527 | -- | 3.96 | 0 | 70 | 39 | 71 | 5.10 | -86 | 8 | 04/22/2025 10:00 AM |
| 38526 | -- | 3.96 | 0 | 68 | 40 | 69 | 5.10 | -86 | 7 | 04/22/2025 09:46 AM |
| 38525 | -- | 3.96 | 0 | 67 | 40 | 67 | 5.10 | -85 | 8 | 04/22/2025 09:30 AM |
| 38524 | -- | 4.13 | 6 | 65 | 40 | 67 | 5.10 | -88 | 8 | 04/22/2025 09:15 AM |
| 38523 | -- | 3.96 | 6 | 64 | 40 | 66 | 5.10 | -79 | 8 | 04/22/2025 09:00 AM |
| 38522 | -- | 3.96 | 6 | 63 | 40 | 65 | 5.10 | -85 | 8 | 04/22/2025 08:45 AM |
| 38521 | -- | 3.96 | 0 | 62 | 40 | 63 | 5.10 | -86 | 7 | 04/22/2025 08:30 AM |
| 38520 | -- | 3.96 | 0 | 61 | 39 | 67 | 5.10 | -85 | 7 | 04/22/2025 08:15 AM |
| 38519 | -- | 3.96 | 0 | 59 | 39 | 67 | 5.10 | -88 | 8 | 04/22/2025 08:00 AM |
| 38518 | -- | 4.09 | 58 | 57 | 39 | 65 | 4.50 | -89 | 7 | 04/22/2025 07:45 AM |
| 38517 | -- | 4.01 | 35 | 55 | 39 | 62 | 4.50 | -90 | 6 | 04/22/2025 07:30 AM |
| 38516 | 15.4 | 3.96 | 18 | 53 | 39 | 59 | 4.50 | -86 | 7 | 04/22/2025 07:15 AM |
| 38515 | -- | 3.97 | 9 | 51 | 40 | 56 | 4.50 | -85 | 8 | 04/22/2025 07:00 AM |
| 38514 | 15.3 | 3.95 | 0 | 49 | 40 | 54 | 4.50 | -85 | 7 | 04/22/2025 06:45 AM |
| 38513 | 15.3 | 3.88 | -8 | 48 | 41 | 51 | 4.50 | -85 | 8 | 04/22/2025 06:30 AM |
| 38512 | 15.3 | 3.88 | -9 | 47 | 41 | 50 | 3.20 | -87 | 6 | 04/22/2025 06:15 AM |
| 38511 | 15.2 | 3.89 | -5 | 47 | 41 | 49 | 0.20 | -83 | 7 | 04/22/2025 06:00 AM |
| 38510 | 15.3 | 3.88 | -5 | 47 | 41 | 50 | 0.00 | -85 | 7 | 04/22/2025 05:45 AM |